Tindouf, Algeria

6:05 PM CET en Octubre 21, 2018 (GMT +0100)
Tindouf

Tiempo Historia de DAOF - Octubre, 2018

Change the Weather History Date:

Viernes, Octubre 12, 2018

  Actual Average Record
Temperature  
Temperatura media 78 ° F -  
Temperatura máxima 93 ° F - - ()
Temperatura mínima 62 ° F - - ()
Cooling Degree Days 12    
Growing Degree Days 28 (Base 50)    
Moisture  
Punto de rocío 50 ° F    
Average Humidity 42    
Maximum Humidity 77    
Minimum Humidity 10    
Precipitación  
Precipitación 0.00 pul - - ()
Presión al nivel del mar  
Presión al nivel del mar 30.04 pul    
Viento  
Velocidad del viento 6 mph ()    
Velocidad máxima del viento 9 mph    
Max Gust Speed -    
Visibilidad 7.5 Millas    
Eventos      
T = Trace of Precipitation, MM = Missing Value Source: Averaged Metar Reports

Daily Weather History Graph

Daily Weather History Graph

Search for Another Location

Airport or City:

Astronomía

Oct. 12, 2018 Salida Puesta
Hora real 7:30 AM CET 7:06 PM CET
Crepúsculo civil 7:07 AM CET 7:30 PM CET
Crepúsculo náutico 6:40 AM CET 7:57 PM CET
Crepúsculo astronómico 6:13 AM CET 8:24 PM CET
Luna 10:38 AM CET (10/12) 9:48 PM CET (10/12)
Horas de luz 12h 22m
Horas de luz
11h 35m
Creciente, 13% of the Moon is Illuminated
Oct 12
Creciente
Oct 16
Cuarto creciente
Oct 24
Luna llena
Oct 31
Cuarto menguante
Nov 7
Nueva

Hourly Weather History & Observations

Hora (CET) Temp. Punto de rocío Humedad Presión Visibilidad Wind Dir Velocidad del viento Velocidad de ráfagas Precip Eventos Condiciones
12:00 AM 73.4 ° F 53.6 ° F 50% 30.01 pul - OSO 4.6 mph - N/A   Despejado
1:00 AM 71 ° F 56 ° F 50% 29.98 pul 6 mi Oeste 8.1 mph - -  
1:00 AM 71.6 ° F 55.4 ° F 57% 30.04 pul - Oeste 8.1 mph - N/A   Despejado
2:00 AM 68.0 ° F 57.2 ° F 68% 30.04 pul - OSO 5.8 mph - N/A   Despejado
3:00 AM 68.0 ° F 57.2 ° F 68% 30.04 pul - OSO 9.2 mph - N/A   Despejado
4:00 AM 67 ° F 57 ° F 63% 29.97 pul 6 mi Oeste 5.8 mph - -  
4:00 AM 68.0 ° F 57.2 ° F 68% 30.04 pul - Oeste 5.8 mph - N/A   Despejado
5:00 AM 66.2 ° F 57.2 ° F 73% 30.04 pul - OSO 6.9 mph - N/A   Despejado
6:00 AM 64.4 ° F 57.2 ° F 77% 30.04 pul - Oeste 9.2 mph - N/A   Despejado
7:00 AM 64 ° F 55 ° F 66% 29.99 pul 6 mi Oeste 8.1 mph - -  
7:00 AM 64.4 ° F 55.4 ° F 73% 30.04 pul - Oeste 8.1 mph - N/A   Despejado
8:00 AM 62.6 ° F 55.4 ° F 77% 30.06 pul - Oeste 6.9 mph - N/A   Despejado
9:00 AM 68.0 ° F 51.8 ° F 56% 30.09 pul - Norte 9.2 mph - N/A   Despejado
10:00 AM 74 ° F 51 ° F 33% 30.04 pul 9 mi Norte 9.2 mph - -  
10:00 AM 75.2 ° F 51.8 ° F 44% 30.09 pul - Norte 9.2 mph - N/A   Despejado
11:00 AM 78.8 ° F 50.0 ° F 36% 30.09 pul - NNE 6.9 mph - N/A   Despejado
12:00 PM 82.4 ° F 48.2 ° F 30% 30.09 pul - Norte 6.9 mph - N/A   Despejado
1:00 PM 86 ° F 45 ° F 15% 30.03 pul 9 mi NNE 5.8 mph - -  
1:00 PM 86.0 ° F 44.6 ° F 23% 30.09 pul - NNE 5.8 mph - N/A   Despejado
2:00 PM 87.8 ° F 42.8 ° F 21% 30.06 pul - NNE 6.9 mph - N/A   Despejado
3:00 PM 89.6 ° F 42.8 ° F 20% 30.04 pul - Norte 4.6 mph - N/A   Despejado
4:00 PM 90 ° F 40 ° F 10% 29.96 pul 9 mi NNE 6.9 mph - -  
4:00 PM 91.4 ° F 41.0 ° F 17% 30.04 pul - NNE 6.9 mph - N/A   Despejado
6:00 PM 89.6 ° F 42.8 ° F 20% 30.04 pul - NE 5.8 mph - N/A   Despejado
7:00 PM 88 ° F 45 ° F 13% 29.97 pul 9 mi NE 4.6 mph - -  
7:00 PM 87.8 ° F 44.6 ° F 22% 30.04 pul - NE 4.6 mph - N/A   Despejado
8:00 PM 84.2 ° F 46.4 ° F 27% 30.04 pul - NE 4.6 mph - N/A   Despejado
9:00 PM 82.4 ° F 48.2 ° F 30% 30.04 pul - NE 6.9 mph - N/A   Despejado
10:00 PM 80 ° F 49 ° F 23% 29.99 pul 6 mi Este 4.6 mph - -  
10:00 PM 80.6 ° F 48.2 ° F 32% 30.04 pul - Este 4.6 mph - N/A   Despejado
11:00 PM 77.0 ° F 48.2 ° F 36% 30.06 pul - Sin viento Sin viento - N/A   Despejado